CBBC

Bella Bella/Campbell Island  Airport

Bella Bella, British Columbia, Canada
Issued Wind Visibility Ceiling Temperature Dew Point Humidity Barometer
Nov-18
04:00 UTC
170°
12 KTS
Gust 27 KTS
9 miles Overcast
2,100' AGL
C
41° F
C
37° F
87% 29.91" Hg
1013.1 hPa
MVFR
Nov-18
03:00 UTC
160°
12 KTS
Gust 21 KTS
9 miles Broken
1,600' AGL
C
41° F
C
37° F
87% 29.91" Hg
1013.1 hPa
MVFR
Nov-18
02:00 UTC
160°
11 KTS
Gust 16 KTS
9 miles Broken
1,600' AGL
C
39° F
C
37° F
93% 29.92" Hg
1013.6 hPa
MVFR
Nov-18
01:00 UTC
150°
13 KTS
Gust 21 KTS
9 miles Broken
2,000' AGL
C
39° F
C
36° F
87% 29.92" Hg
1013.6 hPa
MVFR
Nov-18
00:00 UTC
160°
13 KTS
Gust 20 KTS
9 miles Broken
1,800' AGL
C
39° F
C
36° F
87% 29.93" Hg
1013.7 hPa
MVFR
Nov-17
23:00 UTC
160°
11 KTS
Gust 22 KTS
7 miles Overcast
2,400' AGL
C
39° F
C
36° F
87% 29.93" Hg
1013.7 hPa
MVFR
Nov-17
22:50 UTC
170°
11 KTS
Gust 23 KTS
9 miles Broken
2,300' AGL
C
41° F
C
36° F
81% 29.93" Hg
1013.7 hPa
MVFR
Nov-17
22:00 UTC
150°
10 KTS
Gust 15 KTS
9 miles Broken
3,400' AGL
C
41° F
C
36° F
81% 29.93" Hg
1013.7 hPa
VFR
Nov-17
21:52 UTC
160°
10 KTS
Gust 16 KTS
9 miles Broken
2,800' AGL
C
41° F
C
36° F
81% 29.92" Hg
1013.6 hPa
MVFR
Nov-17
21:33 UTC
160°
10 KTS
Gust 16 KTS
9 miles Broken
2,400' AGL
C
41° F
C
36° F
81% 29.93" Hg
1013.7 hPa
MVFR
Nov-17
21:22 UTC
160°
10 KTS
Gust 16 KTS
9 miles Overcast
3,900' AGL
C
41° F
C
36° F
81% 29.93" Hg
1013.9 hPa
VFR
Nov-17
21:00 UTC
150°
12 KTS
Gust 18 KTS
9 miles Broken
3,500' AGL
C
41° F
C
34° F
76% 29.93" Hg
1013.9 hPa
VFR
Nov-17
20:00 UTC
160°
6 KTS
9 miles Broken
5,500' AGL
C
41° F
C
34° F
76% 29.94" Hg
1014.1 hPa
VFR
Nov-17
19:00 UTC
140°
5 KTS
9 miles   C
39° F
C
36° F
87% 29.93" Hg
1013.7 hPa
VFR
Nov-17
18:00 UTC
130°
6 KTS
9 miles Broken
3,700' AGL
C
37° F
C
36° F
93% 29.91" Hg
1013.3 hPa
VFR
Nov-17
17:00 UTC
130°
8 KTS
9 miles Overcast
4,100' AGL
C
37° F
C
36° F
93% 29.89" Hg
1012.5 hPa
VFR
Nov-17
16:00 UTC
150°
4 KTS
9 miles Overcast
5,000' AGL
C
36° F
C
34° F
93% 29.87" Hg
1011.9 hPa
VFR
Nov-17
15:00 UTC
130°
4 KTS
9 miles Overcast
5,500' AGL
C
36° F
C
36° F
100% 29.85" Hg
1011.2 hPa
VFR
Nov-17
14:00 UTC
140°
4 KTS
9 miles Overcast
4,800' AGL
C
36° F
C
34° F
93% 29.83" Hg
1010.6 hPa
VFR
Nov-17
13:00 UTC
160°
2 KTS
9 miles Overcast
5,500' AGL
      29.83" Hg
1010.3 hPa
VFR
Nov-17
12:00 UTC
9 miles Overcast
5,500' AGL
      29.81" Hg
1009.8 hPa
VFR
Nov-17
11:00 UTC
140°
2 KTS
9 miles Overcast
6,500' AGL
      29.79" Hg
1009.2 hPa
VFR
Nov-17
10:00 UTC
9 miles Overcast
6,500' AGL
C
34° F
C
32° F
93% 29.77" Hg
1008.5 hPa
VFR
Nov-17
09:00 UTC
9 miles Overcast
6,500' AGL
C
34° F
C
32° F
93% 29.75" Hg
1007.7 hPa
VFR
Nov-17
08:00 UTC
9 miles Overcast
6,500' AGL
      29.72" Hg
1006.8 hPa
VFR
Nov-17
07:36 UTC
9 miles Overcast
7,000' AGL
C
34° F
C
32° F
93% 29.71" Hg
1006.5 hPa
VFR
Nov-17
07:19 UTC
9 miles Broken
1,600' AGL
C
34° F
C
32° F
93% 29.71" Hg
1006.3 hPa
MVFR
Nov-17
07:08 UTC
9 miles Broken
1,400' AGL
C
34° F
C
32° F
93% 29.7" Hg
1006.1 hPa
MVFR
Nov-17
06:35 UTC
9 miles Overcast
7,000' AGL
C
34° F
C
34° F
100% 29.69" Hg
1005.6 hPa
VFR
Nov-17
06:24 UTC
9 miles Broken
2,300' AGL
C
34° F
C
34° F
100% 29.68" Hg
1005.5 hPa
MVFR
Nov-17
06:00 UTC
9 miles Overcast
7,500' AGL
C
36° F
C
34° F
93% 29.68" Hg
1005.4 hPa
VFR
Nov-17
05:11 UTC
9 miles Broken
2,700' AGL
C
36° F
C
36° F
100% 29.66" Hg
1004.8 hPa
MVFR
Nov-17
05:01 UTC
Varies @2 KTS 9 miles Broken
1,900' AGL
C
36° F
C
34° F
93% 29.66" Hg
1004.7 hPa
MVFR